| time (UTC) | temp C | wind direction | speed KPH | gust KPH | rain 1hr cm | rain 24hr cm | rain mn cm | humidity % | barometer mb |
| 20260831041504 | 17 | 269 | 0.0 | 0.0 | 0.00 | 0.00 | 0.00 | 64 | 1014.5 |
| 20260831041005 | 17 | 282 | 0.0 | 0.0 | 0.00 | 0.00 | 0.00 | 63 | 1014.5 |
| 20260831040504 | 17 | 282 | 0.0 | 0.0 | 0.00 | 0.00 | 0.00 | 63 | 1014.5 |
| 20260831040005 | 17 | 305 | 0.0 | 0.0 | 0.00 | 0.00 | 0.00 | 63 | 1014.5 |
| 20260831034505 | 17 | 192 | 0.0 | 0.0 | 0.00 | 0.00 | 0.00 | 62 | 1014.5 |
| 20260831034004 | 17 | 215 | 0.0 | 0.0 | 0.00 | 0.00 | 0.00 | 61 | 1015.5 |
| 20260831033505 | 17 | 269 | 0.0 | 4.8 | 0.00 | 0.00 | 0.00 | 61 | 1015.5 |
| 20260831033004 | 17 | 215 | 0.0 | 4.8 | 0.00 | 0.00 | 0.00 | 60 | 1015.5 |
| 20260831032505 | 17 | 284 | 0.0 | 4.8 | 0.00 | 0.00 | 0.00 | 60 | 1015.5 |
| 20260831032004 | 17 | 305 | 0.0 | 0.0 | 0.00 | 0.00 | 0.00 | 59 | 1015.5 |
| 20260831031504 | 17 | 192 | 0.0 | 0.0 | 0.00 | 0.00 | 0.00 | 59 | 1015.5 |
| 20260831031004 | 18 | 282 | 0.0 | 0.0 | 0.00 | 0.00 | 0.00 | 58 | 1015.5 |
| 20260831030504 | 18 | 35 | 0.0 | 0.0 | 0.00 | 0.00 | 0.00 | 58 | 1015.5 |
| 20260831030004 | 18 | 287 | 0.0 | 0.0 | 0.00 | 0.00 | 0.00 | 57 | 1015.5 |
| 20260831025504 | 18 | 260 | 0.0 | 0.0 | 0.00 | 0.00 | 0.00 | 57 | 1015.5 |
| 20260831025005 | 18 | 260 | 0.0 | 0.0 | 0.00 | 0.00 | 0.00 | 56 | 1015.5 |
| 20260831024504 | 18 | 260 | 0.0 | 0.0 | 0.00 | 0.00 | 0.00 | 56 | 1015.5 |
| 20260831024004 | 18 | 185 | 0.0 | 0.0 | 0.00 | 0.00 | 0.00 | 55 | 1015.5 |
| 20260831023504 | 18 | 192 | 0.0 | 0.0 | 0.00 | 0.00 | 0.00 | 55 | 1015.5 |
| 20260831023006 | 18 | 305 | 0.0 | 8.0 | 0.00 | 0.00 | 0.00 | 54 | 1015.5 |
| 20260831022505 | 18 | 236 | 0.0 | 8.0 | 0.00 | 0.00 | 0.00 | 54 | 1015.5 |
| 20260831022004 | 19 | 173 | 0.0 | 0.0 | 0.00 | 0.00 | 0.00 | 54 | 1015.5 |
| 20260831021504 | 19 | 119 | 0.0 | 0.0 | 0.00 | 0.00 | 0.00 | 53 | 1015.5 |
| 20260831021005 | 19 | 192 | 0.0 | 0.0 | 0.00 | 0.00 | 0.00 | 53 | 1015.5 |
| 20260831020504 | 19 | 287 | 0.0 | 24.1 | 0.00 | 0.00 | 0.00 | 52 | 1015.5 |
| 20260831015504 | 20 | 352 | 0.0 | 3.2 | 0.00 | 0.00 | 0.00 | 52 | 1015.5 |
| 20260831015004 | 20 | 81 | 0.0 | 9.7 | 0.00 | 0.00 | 0.00 | 51 | 1015.5 |
| 20260831014504 | 20 | 10 | 0.0 | 9.7 | 0.00 | 0.00 | 0.00 | 51 | 1015.5 |
| 20260831014004 | 20 | 215 | 0.0 | 8.0 | 0.00 | 0.00 | 0.00 | 51 | 1016.5 |
| 20260831013504 | 20 | 81 | 0.0 | 8.0 | 0.00 | 0.00 | 0.00 | 50 | 1016.5 |
| 20260831013004 | 20 | 199 | 1.6 | 8.0 | 0.00 | 0.00 | 0.00 | 50 | 1016.5 |
| 20260831012005 | 20 | 43 | 1.6 | 8.0 | 0.00 | 0.00 | 0.00 | 50 | 1016.5 |
| 20260831011504 | 20 | 38 | 0.0 | 9.7 | 0.00 | 0.00 | 0.00 | 50 | 1016.5 |
| 20260831011005 | 20 | 196 | 0.0 | 25.7 | 0.00 | 0.00 | 0.00 | 50 | 1016.5 |
| 20260831010504 | 20 | 93 | 1.6 | 25.7 | 0.00 | 0.00 | 0.00 | 49 | 1016.5 |
| 20260831010005 | 20 | 44 | 1.6 | 25.7 | 0.00 | 0.00 | 0.00 | 49 | 1016.5 |
| 20260831005004 | 20 | 78 | 0.0 | 19.3 | 0.00 | 0.00 | 0.00 | 49 | 1016.5 |
| 20260831003504 | 21 | 89 | 1.6 | 16.1 | 0.00 | 0.00 | 0.00 | 48 | 1016.5 |
| 20260831003005 | 21 | 106 | 0.0 | 16.1 | 0.00 | 0.00 | 0.00 | 48 | 1016.5 |
| 20260831002504 | 21 | 86 | 4.8 | 19.3 | 0.00 | 0.00 | 0.00 | 48 | 1016.5 |
| 20260831002004 | 21 | 25 | 3.2 | 19.3 | 0.00 | 0.00 | 0.00 | 48 | 1016.5 |
| 20260831001505 | 21 | 59 | 3.2 | 9.7 | 0.00 | 0.00 | 0.00 | 48 | 1016.5 |
| 20260831001004 | 21 | 248 | 0.0 | 11.3 | 0.00 | 0.00 | 0.00 | 48 | 1016.5 |
| 20260831000004 | 21 | 83 | 0.0 | 20.9 | 0.00 | 0.00 | 0.00 | 47 | 1016.5 |
| 20260830235504 | 21 | 156 | 8.0 | 20.9 | 0.00 | 0.00 | 0.00 | 47 | 1016.5 |
| 20260830234004 | 22 | 62 | 1.6 | 16.1 | 0.00 | 0.00 | 0.00 | 47 | 1015.5 |
| 20260830233504 | 22 | 30 | 1.6 | 22.5 | 0.00 | 0.00 | 0.00 | 47 | 1015.5 |
| 20260830232504 | 22 | 320 | 1.6 | 16.1 | 0.00 | 0.00 | 0.00 | 47 | 1016.5 |
| 20260830231504 | 22 | 311 | 0.0 | 16.1 | 0.00 | 0.00 | 0.00 | 48 | 1016.5 |
| 20260830231004 | 22 | 252 | 6.4 | 16.1 | 0.00 | 0.00 | 0.00 | 47 | 1016.5 |
| 20260830230504 | 22 | 279 | 4.8 | 16.1 | 0.00 | 0.00 | 0.00 | 47 | 1016.5 |
| 20260830230005 | 22 | 176 | 1.6 | 12.9 | 0.00 | 0.00 | 0.00 | 48 | 1016.5 |
| 20260830225504 | 22 | 156 | 0.0 | 11.3 | 0.00 | 0.00 | 0.00 | 47 | 1017.5 |
| 20260830225004 | 22 | 228 | 3.2 | 16.1 | 0.00 | 0.00 | 0.00 | 48 | 1017.5 |
| 20260830224504 | 22 | 305 | 8.0 | 16.1 | 0.00 | 0.00 | 0.00 | 46 | 1017.5 |
| 20260830224004 | 22 | 87 | 4.8 | 14.5 | 0.00 | 0.00 | 0.00 | 48 | 1017.5 |
| 20260830223504 | 22 | 319 | 3.2 | 14.5 | 0.00 | 0.00 | 0.00 | 48 | 1017.5 |
| 20260830223004 | 22 | 219 | 3.2 | 22.5 | 0.00 | 0.00 | 0.00 | 48 | 1017.5 |
| 20260830222504 | 22 | 262 | 3.2 | 22.5 | 0.00 | 0.00 | 0.00 | 48 | 1017.5 |
| 20260830222004 | 22 | 256 | 3.2 | 33.8 | 0.00 | 0.00 | 0.00 | 49 | 1017.5 |
| 20260830221504 | 21 | 350 | 9.7 | 33.8 | 0.00 | 0.00 | 0.00 | 48 | 1017.5 |
| 20260830220504 | 21 | 284 | 3.2 | 14.5 | 0.00 | 0.00 | 0.00 | 48 | 1017.5 |
| 20260830220004 | 22 | 305 | 3.2 | 14.5 | 0.00 | 0.00 | 0.00 | 49 | 1017.5 |
| 20260830215004 | 21 | 300 | 6.4 | 24.1 | 0.00 | 0.00 | 0.00 | 50 | 1018.5 |
| 20260830214504 | 21 | 79 | 9.7 | 19.3 | 0.00 | 0.00 | 0.00 | 50 | 1018.5 |
| 20260830214004 | 21 | 87 | 8.0 | 19.3 | 0.00 | 0.00 | 0.00 | 50 | 1018.5 |
| 20260830213004 | 21 | 12 | 6.4 | 19.3 | 0.00 | 0.00 | 0.00 | 50 | 1018.5 |
| 20260830212504 | 21 | 6 | 6.4 | 20.9 | 0.00 | 0.00 | 0.00 | 51 | 1018.5 |
| 20260830212003 | 21 | 18 | 9.7 | 24.1 | 0.00 | 0.00 | 0.00 | 51 | 1018.5 |
| 20260830211504 | 21 | 174 | 4.8 | 27.4 | 0.00 | 0.00 | 0.00 | 52 | 1018.5 |
| 20260830211004 | 21 | 68 | 9.7 | 27.4 | 0.00 | 0.00 | 0.00 | 52 | 1018.5 |
| 20260830210503 | 21 | 259 | 4.8 | 24.1 | 0.00 | 0.00 | 0.00 | 51 | 1018.5 |
| 20260830210003 | 21 | 32 | 8.0 | 19.3 | 0.00 | 0.00 | 0.00 | 53 | 1018.5 |
| 20260830205504 | 20 | 43 | 8.0 | 14.5 | 0.00 | 0.00 | 0.00 | 53 | 1018.5 |
| 20260830205004 | 20 | 305 | 6.4 | 14.5 | 0.00 | 0.00 | 0.00 | 54 | 1018.5 |
| 20260830204504 | 20 | 258 | 1.6 | 12.9 | 0.00 | 0.00 | 0.00 | 55 | 1018.5 |
| 20260830204004 | 20 | 230 | 3.2 | 12.9 | 0.00 | 0.00 | 0.00 | 55 | 1017.5 |
| 20260830203504 | 20 | 51 | 4.8 | 14.5 | 0.00 | 0.00 | 0.00 | 56 | 1017.5 |
| 20260830202504 | 19 | 305 | 1.6 | 12.9 | 0.00 | 0.00 | 0.00 | 58 | 1018.5 |
| 20260830202006 | 19 | 35 | 1.6 | 12.9 | 0.00 | 0.00 | 0.00 | 58 | 1018.5 |
| 20260830201506 | 18 | 69 | 1.6 | 16.1 | 0.00 | 0.00 | 0.00 | 57 | 1018.5 |
| 20260830201006 | 18 | 65 | 8.0 | 24.1 | 0.00 | 0.00 | 0.00 | 56 | 1018.5 |
| 20260830200006 | 18 | 48 | 8.0 | 24.1 | 0.00 | 0.00 | 0.00 | 60 | 1018.5 |
| 20260830195506 | 18 | 258 | 4.8 | 16.1 | 0.00 | 0.00 | 0.00 | 60 | 1018.5 |
| 20260830195007 | 18 | 260 | 8.0 | 16.1 | 0.00 | 0.00 | 0.00 | 59 | 1018.5 |
| 20260830194506 | 18 | 260 | 9.7 | 16.1 | 0.00 | 0.00 | 0.00 | 59 | 1018.5 |
| 20260830194007 | 18 | 260 | 3.2 | 9.7 | 0.00 | 0.00 | 0.00 | 61 | 1018.5 |
| 20260830193507 | 18 | 260 | 0.0 | 16.1 | 0.00 | 0.00 | 0.00 | 62 | 1018.5 |
| 20260830193006 | 17 | 260 | 6.4 | 20.9 | 0.00 | 0.00 | 0.00 | 62 | 1018.5 |
| 20260830192507 | 18 | 260 | 1.6 | 20.9 | 0.00 | 0.00 | 0.00 | 62 | 1018.5 |
| 20260830192007 | 18 | 260 | 6.4 | 20.9 | 0.00 | 0.00 | 0.00 | 63 | 1018.5 |
| 20260830191508 | 17 | 260 | 3.2 | 16.1 | 0.00 | 0.00 | 0.00 | 64 | 1018.5 |
| 20260830185506 | 17 | 260 | 0.0 | 12.9 | 0.00 | 0.00 | 0.00 | 65 | 1019.5 |
| 20260830185006 | 17 | 260 | 0.0 | 12.9 | 0.00 | 0.00 | 0.00 | 65 | 1019.5 |
| 20260830184506 | 17 | 260 | 0.0 | 3.2 | 0.00 | 0.00 | 0.00 | 66 | 1019.5 |
| 20260830184007 | 17 | 260 | 0.0 | 14.5 | 0.00 | 0.00 | 0.00 | 66 | 1019.5 |
| 20260830183507 | 17 | 260 | 0.0 | 16.1 | 0.00 | 0.00 | 0.00 | 66 | 1019.5 |
| 20260830182506 | 17 | 260 | 3.2 | 19.3 | 0.00 | 0.00 | 0.00 | 70 | 1019.5 |
| 20260830182007 | 16 | 260 | 0.0 | 0.0 | 0.00 | 0.00 | 0.00 | 70 | 1019.5 |
| 20260830181506 | 16 | 260 | 0.0 | 0.0 | 0.00 | 0.00 | 0.00 | 70 | 1019.5 |
| 20260830181006 | 16 | 260 | 0.0 | 0.0 | 0.00 | 0.00 | 0.00 | 70 | 1019.5 |
| 20260830180507 | 16 | 260 | 0.0 | 0.0 | 0.00 | 0.00 | 0.00 | 71 | 1019.5 |
| 20260830180007 | 16 | 260 | 0.0 | 0.0 | 0.00 | 0.00 | 0.00 | 71 | 1019.5 |
| 20260830175506 | 16 | 260 | 0.0 | 0.0 | 0.00 | 0.00 | 0.00 | 71 | 1018.5 |
| 20260830174507 | 16 | 260 | 0.0 | 4.8 | 0.00 | 0.00 | 0.00 | 71 | 1018.5 |
| 20260830174007 | 16 | 260 | 0.0 | 14.5 | 0.00 | 0.00 | 0.00 | 72 | 1018.5 |
| 20260830173507 | 16 | 260 | 1.6 | 14.5 | 0.00 | 0.00 | 0.00 | 72 | 1018.5 |
| 20260830173006 | 16 | 260 | 0.0 | 0.0 | 0.00 | 0.00 | 0.00 | 72 | 1018.5 |
| 20260830172506 | 15 | 260 | 0.0 | 0.0 | 0.00 | 0.00 | 0.00 | 72 | 1018.5 |
| 20260830172006 | 16 | 260 | 0.0 | 0.0 | 0.00 | 0.00 | 0.00 | 72 | 1018.5 |
| 20260830171506 | 16 | 260 | 0.0 | 0.0 | 0.00 | 0.00 | 0.00 | 72 | 1018.5 |
| 20260830171006 | 16 | 260 | 0.0 | 9.7 | 0.00 | 0.00 | 0.00 | 72 | 1019.5 |
| 20260830165507 | 16 | 260 | 0.0 | 16.1 | 0.00 | 0.00 | 0.00 | 75 | 1018.5 |
| 20260830164506 | 16 | 260 | 4.8 | 20.9 | 0.00 | 0.00 | 0.00 | 77 | 1018.5 |
| 20260830164006 | 16 | 260 | 4.8 | 11.3 | 0.00 | 0.00 | 0.00 | 78 | 1018.5 |
| 20260830163507 | 16 | 260 | 1.6 | 11.3 | 0.00 | 0.00 | 0.00 | 79 | 1018.5 |
| 20260830163006 | 16 | 260 | 1.6 | 11.3 | 0.00 | 0.00 | 0.00 | 80 | 1018.5 |
| 20260830162506 | 15 | 260 | 0.0 | 0.0 | 0.00 | 0.00 | 0.00 | 81 | 1019.5 |
| 20260830160506 | 15 | 260 | 0.0 | 0.0 | 0.00 | 0.00 | 0.00 | 83 | 1019.5 |
| 20260830160006 | 14 | 260 | 0.0 | 0.0 | 0.00 | 0.00 | 0.00 | 84 | 1019.5 |
| 20260830155506 | 14 | 260 | 0.0 | 9.7 | 0.00 | 0.00 | 0.00 | 84 | 1019.5 |
| 20260830155006 | 14 | 260 | 0.0 | 11.3 | 0.00 | 0.00 | 0.00 | 85 | 1019.5 |
| 20260830154506 | 14 | 260 | 1.6 | 11.3 | 0.00 | 0.00 | 0.00 | 86 | 1019.5 |
| 20260830154006 | 13 | 260 | 3.2 | 11.3 | 0.00 | 0.00 | 0.00 | 86 | 1019.5 |
| 20260830153507 | 13 | 260 | 4.8 | 11.3 | 0.00 | 0.00 | 0.00 | 86 | 1019.5 |
| 20260830153006 | 13 | 260 | 0.0 | 0.0 | 0.00 | 0.00 | 0.00 | 86 | 1019.5 |
| 20260830152506 | 13 | 260 | 0.0 | 9.7 | 0.00 | 0.00 | 0.00 | 86 | 1019.5 |
| 20260830152006 | 13 | 260 | 3.2 | 9.7 | 0.00 | 0.00 | 0.00 | 87 | 1019.5 |
| 20260830151506 | 13 | 260 | 0.0 | 0.0 | 0.00 | 0.00 | 0.00 | 87 | 1019.5 |
| 20260830150506 | 12 | 260 | 0.0 | 0.0 | 0.00 | 0.00 | 0.00 | 88 | 1019.5 |
| 20260830150006 | 12 | 260 | 0.0 | 0.0 | 0.00 | 0.00 | 0.00 | 87 | 1019.5 |
| 20260830145507 | 12 | 260 | 0.0 | 0.0 | 0.00 | 0.00 | 0.00 | 87 | 1019.5 |
| 20260830145005 | 12 | 260 | 0.0 | 0.0 | 0.00 | 0.00 | 0.00 | 87 | 1019.5 |
| 20260830144006 | 12 | 260 | 0.0 | 0.0 | 0.00 | 0.00 | 0.00 | 87 | 1019.5 |
| 20260830143506 | 12 | 260 | 0.0 | 0.0 | 0.00 | 0.00 | 0.00 | 87 | 1019.5 |
| 20260830143006 | 12 | 260 | 0.0 | 0.0 | 0.00 | 0.00 | 0.00 | 87 | 1019.5 |
| 20260830142506 | 12 | 260 | 0.0 | 0.0 | 0.00 | 0.00 | 0.00 | 87 | 1019.5 |
| 20260830141506 | 12 | 260 | 0.0 | 0.0 | 0.00 | 0.00 | 0.00 | 86 | 1019.5 |
| 20260830141006 | 12 | 260 | 0.0 | 0.0 | 0.00 | 0.00 | 0.00 | 86 | 1019.5 |
| 20260830140506 | 12 | 260 | 0.0 | 0.0 | 0.00 | 0.00 | 0.00 | 86 | 1019.5 |
| 20260830140006 | 12 | 260 | 0.0 | 0.0 | 0.00 | 0.00 | 0.00 | 86 | 1019.5 |
| 20260830135006 | 12 | 260 | 0.0 | 0.0 | 0.00 | 0.00 | 0.00 | 86 | 1019.5 |
| 20260830134506 | 12 | 260 | 0.0 | 0.0 | 0.00 | 0.00 | 0.00 | 86 | 1019.5 |
| 20260830133505 | 12 | 260 | 0.0 | 0.0 | 0.00 | 0.00 | 0.00 | 86 | 1019.5 |
| 20260830132506 | 12 | 260 | 0.0 | 0.0 | 0.00 | 0.00 | 0.00 | 85 | 1018.5 |
| 20260830132006 | 12 | 260 | 0.0 | 0.0 | 0.00 | 0.00 | 0.00 | 85 | 1018.5 |
| 20260830131506 | 12 | 260 | 0.0 | 0.0 | 0.00 | 0.00 | 0.00 | 85 | 1018.5 |
| 20260830131005 | 12 | 260 | 0.0 | 0.0 | 0.00 | 0.00 | 0.00 | 85 | 1018.5 |
| 20260830130505 | 12 | 260 | 0.0 | 0.0 | 0.00 | 0.00 | 0.00 | 85 | 1018.5 |
| 20260830130006 | 12 | 260 | 0.0 | 0.0 | 0.00 | 0.00 | 0.00 | 85 | 1018.5 |
| 20260830125506 | 12 | 260 | 0.0 | 0.0 | 0.00 | 0.00 | 0.00 | 85 | 1019.5 |
| 20260830125006 | 12 | 260 | 0.0 | 0.0 | 0.00 | 0.00 | 0.00 | 85 | 1019.5 |
| 20260830124506 | 12 | 260 | 0.0 | 0.0 | 0.00 | 0.00 | 0.00 | 85 | 1019.5 |
| 20260830123506 | 12 | 260 | 0.0 | 0.0 | 0.00 | 0.00 | 0.00 | 85 | 1018.5 |
| 20260830123005 | 12 | 260 | 0.0 | 0.0 | 0.00 | 0.00 | 0.00 | 85 | 1018.5 |
| 20260830122506 | 12 | 260 | 0.0 | 0.0 | 0.00 | 0.00 | 0.00 | 85 | 1018.5 |
| 20260830122006 | 11 | 260 | 0.0 | 0.0 | 0.00 | 0.00 | 0.00 | 85 | 1018.5 |
| 20260830121506 | 11 | 260 | 0.0 | 0.0 | 0.00 | 0.00 | 0.00 | 85 | 1018.5 |
| 20260830115505 | 11 | 260 | 0.0 | 0.0 | 0.00 | 0.00 | 0.00 | 84 | 1018.5 |
| 20260830114006 | 11 | 260 | 0.0 | 0.0 | 0.00 | 0.00 | 0.00 | 84 | 1018.5 |
| 20260830113006 | 11 | 260 | 0.0 | 0.0 | 0.00 | 0.00 | 0.00 | 83 | 1018.5 |
| 20260830112506 | 11 | 260 | 0.0 | 0.0 | 0.00 | 0.00 | 0.00 | 83 | 1018.5 |
| 20260830112006 | 11 | 260 | 0.0 | 0.0 | 0.00 | 0.00 | 0.00 | 83 | 1018.5 |
| 20260830111506 | 11 | 260 | 0.0 | 0.0 | 0.00 | 0.00 | 0.00 | 83 | 1018.5 |
| 20260830110506 | 11 | 260 | 0.0 | 0.0 | 0.00 | 0.00 | 0.00 | 83 | 1018.5 |
| 20260830110005 | 11 | 260 | 0.0 | 0.0 | 0.00 | 0.00 | 0.00 | 82 | 1018.5 |
| 20260830105005 | 11 | 260 | 0.0 | 0.0 | 0.00 | 0.00 | 0.00 | 82 | 1018.5 |
| 20260830104006 | 11 | 260 | 0.0 | 0.0 | 0.00 | 0.00 | 0.00 | 82 | 1019.5 |
| 20260830103505 | 11 | 260 | 0.0 | 0.0 | 0.00 | 0.00 | 0.00 | 81 | 1019.5 |
| 20260830103006 | 11 | 260 | 0.0 | 0.0 | 0.00 | 0.00 | 0.00 | 81 | 1019.5 |
| 20260830102505 | 11 | 260 | 0.0 | 0.0 | 0.00 | 0.00 | 0.00 | 81 | 1018.5 |
| 20260830102005 | 11 | 260 | 0.0 | 0.0 | 0.00 | 0.00 | 0.00 | 81 | 1018.5 |
| 20260830101505 | 11 | 260 | 0.0 | 0.0 | 0.00 | 0.00 | 0.00 | 81 | 1018.5 |
| 20260830101006 | 11 | 260 | 0.0 | 0.0 | 0.00 | 0.00 | 0.00 | 80 | 1018.5 |
| 20260830100505 | 11 | 260 | 0.0 | 0.0 | 0.00 | 0.00 | 0.00 | 80 | 1018.5 |
| 20260830100006 | 11 | 260 | 0.0 | 0.0 | 0.00 | 0.00 | 0.00 | 80 | 1018.5 |
| 20260830095005 | 12 | 260 | 0.0 | 0.0 | 0.00 | 0.00 | 0.00 | 79 | 1018.5 |
| 20260830094506 | 12 | 260 | 0.0 | 0.0 | 0.00 | 0.00 | 0.00 | 79 | 1018.5 |
| 20260830094005 | 12 | 260 | 0.0 | 0.0 | 0.00 | 0.00 | 0.00 | 79 | 1018.5 |
| 20260830093005 | 12 | 260 | 0.0 | 0.0 | 0.00 | 0.00 | 0.00 | 79 | 1018.5 |
| 20260830091506 | 12 | 260 | 0.0 | 0.0 | 0.00 | 0.00 | 0.00 | 78 | 1018.5 |
| 20260830091006 | 12 | 260 | 0.0 | 0.0 | 0.00 | 0.00 | 0.00 | 77 | 1019.5 |
| 20260830090505 | 12 | 260 | 0.0 | 0.0 | 0.00 | 0.00 | 0.00 | 77 | 1019.5 |
| 20260830090005 | 12 | 260 | 0.0 | 0.0 | 0.00 | 0.00 | 0.00 | 77 | 1019.5 |
| 20260830085505 | 12 | 260 | 0.0 | 0.0 | 0.00 | 0.00 | 0.00 | 76 | 1019.5 |
| 20260830084006 | 12 | 260 | 0.0 | 0.0 | 0.00 | 0.00 | 0.00 | 75 | 1019.5 |
| 20260830083506 | 12 | 260 | 0.0 | 0.0 | 0.00 | 0.00 | 0.00 | 75 | 1019.5 |
| 20260830083005 | 12 | 260 | 0.0 | 0.0 | 0.00 | 0.00 | 0.00 | 74 | 1019.5 |
| 20260830082505 | 12 | 260 | 0.0 | 0.0 | 0.00 | 0.00 | 0.00 | 74 | 1018.5 |
| 20260830082006 | 12 | 260 | 0.0 | 0.0 | 0.00 | 0.00 | 0.00 | 74 | 1018.5 |
| 20260830081005 | 12 | 260 | 0.0 | 0.0 | 0.00 | 0.00 | 0.00 | 74 | 1019.5 |
| 20260830080505 | 12 | 260 | 0.0 | 0.0 | 0.00 | 0.00 | 0.00 | 73 | 1019.5 |
| 20260830080005 | 12 | 260 | 0.0 | 0.0 | 0.00 | 0.00 | 0.00 | 73 | 1019.5 |
| 20260830075505 | 12 | 260 | 0.0 | 0.0 | 0.00 | 0.00 | 0.00 | 73 | 1019.5 |
| 20260830075005 | 12 | 260 | 0.0 | 0.0 | 0.00 | 0.00 | 0.00 | 73 | 1019.5 |
| 20260830074005 | 12 | 260 | 0.0 | 0.0 | 0.00 | 0.00 | 0.00 | 72 | 1019.5 |
| 20260830073505 | 13 | 260 | 0.0 | 0.0 | 0.00 | 0.00 | 0.00 | 72 | 1019.5 |
| 20260830073005 | 13 | 260 | 0.0 | 0.0 | 0.00 | 0.00 | 0.00 | 71 | 1019.5 |
| 20260830072505 | 13 | 260 | 0.0 | 0.0 | 0.00 | 0.00 | 0.00 | 71 | 1019.5 |
| 20260830071505 | 13 | 260 | 0.0 | 0.0 | 0.00 | 0.00 | 0.00 | 70 | 1019.5 |
| 20260830071006 | 13 | 260 | 0.0 | 0.0 | 0.00 | 0.00 | 0.00 | 70 | 1019.5 |
| 20260830070506 | 13 | 260 | 0.0 | 0.0 | 0.00 | 0.00 | 0.00 | 70 | 1019.5 |
| 20260830070005 | 13 | 260 | 0.0 | 0.0 | 0.00 | 0.00 | 0.00 | 70 | 1019.5 |
| 20260830065505 | 13 | 260 | 0.0 | 0.0 | 0.00 | 0.00 | 0.00 | 69 | 1019.5 |
| 20260830065005 | 13 | 260 | 0.0 | 0.0 | 0.00 | 0.00 | 0.00 | 69 | 1019.5 |
| 20260830064504 | 13 | 260 | 0.0 | 0.0 | 0.00 | 0.00 | 0.00 | 69 | 1019.5 |
| 20260830063505 | 13 | 260 | 0.0 | 0.0 | 0.00 | 0.00 | 0.00 | 68 | 1019.5 |
| 20260830063005 | 13 | 260 | 0.0 | 0.0 | 0.00 | 0.00 | 0.00 | 68 | 1019.5 |
| 20260830062506 | 13 | 260 | 0.0 | 0.0 | 0.00 | 0.00 | 0.00 | 67 | 1019.5 |
| 20260830062005 | 13 | 260 | 0.0 | 0.0 | 0.00 | 0.00 | 0.00 | 66 | 1019.5 |
| 20260830061505 | 13 | 260 | 0.0 | 0.0 | 0.00 | 0.00 | 0.00 | 66 | 1019.5 |
| 20260830061005 | 13 | 260 | 0.0 | 0.0 | 0.00 | 0.00 | 0.00 | 66 | 1019.5 |
| 20260830060505 | 13 | 215 | 0.0 | 0.0 | 0.00 | 0.00 | 0.00 | 65 | 1019.5 |
| 20260830060005 | 13 | 215 | 0.0 | 0.0 | 0.00 | 0.00 | 0.00 | 65 | 1019.5 |
| 20260830055505 | 13 | 215 | 0.0 | 0.0 | 0.00 | 0.00 | 0.00 | 64 | 1019.5 |
| 20260830055005 | 14 | 215 | 0.0 | 0.0 | 0.00 | 0.00 | 0.00 | 64 | 1019.5 |
| 20260830054505 | 14 | 215 | 0.0 | 0.0 | 0.00 | 0.00 | 0.00 | 63 | 1019.5 |
| 20260830053505 | 14 | 215 | 0.0 | 0.0 | 0.00 | 0.00 | 0.00 | 62 | 1018.5 |
| 20260830053005 | 14 | 215 | 0.0 | 0.0 | 0.00 | 0.00 | 0.00 | 62 | 1018.5 |
| 20260830052005 | 14 | 215 | 0.0 | 0.0 | 0.00 | 0.00 | 0.00 | 61 | 1018.5 |
| 20260830051505 | 15 | 215 | 0.0 | 0.0 | 0.00 | 0.00 | 0.00 | 61 | 1018.5 |
| 20260830051005 | 15 | 215 | 0.0 | 0.0 | 0.00 | 0.00 | 0.00 | 60 | 1019.5 |
| 20260830050505 | 15 | 260 | 0.0 | 0.0 | 0.00 | 0.00 | 0.00 | 60 | 1019.5 |
| 20260830050005 | 15 | 260 | 0.0 | 0.0 | 0.00 | 0.00 | 0.00 | 59 | 1019.5 |
| 20260830045505 | 15 | 260 | 0.0 | 3.2 | 0.00 | 0.00 | 0.00 | 58 | 1018.5 |
| 20260830045005 | 15 | 260 | 0.0 | 8.0 | 0.00 | 0.00 | 0.00 | 58 | 1018.5 |
| 20260830044004 | 15 | 140 | 0.0 | 8.0 | 0.00 | 0.00 | 0.00 | 57 | 1018.5 |
| 20260830043504 | 15 | 282 | 0.0 | 8.0 | 0.00 | 0.00 | 0.00 | 57 | 1018.5 |
| 20260830043004 | 15 | 102 | 0.0 | 8.0 | 0.00 | 0.00 | 0.00 | 56 | 1018.5 |
| 20260830042505 | 15 | 208 | 0.0 | 8.0 | 0.00 | 0.00 | 0.00 | 56 | 1018.5 |